AFR333 KBOS-LFPG

Flight info

Callsign AFR333
Flight time N/A
Altitude 39000
Route LBSTA8 LBSTA DCT EBONY DCT ELSIR/M084F400 DCT 50N050W 52N040W 53N030W 53N020W DCT LIMRI DCT XETBO/N0488F410 DCT UNLID/M084F410 DCT ARKIL/N0485F410 DCT ANNET UM25 INGOR/N0454F280 UM25 LUKIP
Aircraft A359/H-SDE2E3GHIJ3J4J5LM1ORWXY/LB1D1

Departure

Time N/A
Airport Boston Logan International Airport (KBOS)

Arrival

Time 2026-05-07 21:45
Airport Charles de Gaulle International Airport (LFPG)
Time Latitude Longitude Altitude Speed Heading
2026-05-07 18:57 52.86147 -32.12278 40314 ft 500 kts 76°
2026-05-07 18:57 52.86991 -32.00868 40314 ft 500 kts 76°
2026-05-07 18:58 52.87824 -31.89457 40329 ft 500 kts 77°
2026-05-07 18:58 52.88645 -31.78049 40308 ft 498 kts 77°
2026-05-07 18:59 52.89452 -31.66670 40304 ft 498 kts 77°
2026-05-07 18:59 52.90249 -31.55300 40306 ft 498 kts 77°
2026-05-07 19:00 52.91036 -31.43896 40307 ft 498 kts 77°
2026-05-07 19:00 52.91813 -31.32492 40327 ft 499 kts 77°
2026-05-07 19:01 52.92581 -31.21048 40304 ft 501 kts 77°
2026-05-07 19:01 52.93335 -31.09642 40306 ft 501 kts 78°
2026-05-07 19:02 52.94083 -30.98143 40300 ft 502 kts 78°
2026-05-07 19:02 52.94820 -30.86625 40295 ft 502 kts 78°
2026-05-07 19:03 52.95548 -30.75106 40297 ft 504 kts 78°
2026-05-07 19:03 52.96269 -30.63515 40292 ft 507 kts 78°
2026-05-07 19:04 52.96980 -30.51884 40295 ft 507 kts 78°
2026-05-07 19:04 52.97678 -30.40246 40295 ft 507 kts 78°
2026-05-07 19:05 52.98368 -30.28580 40287 ft 507 kts 78°
2026-05-07 19:05 52.99047 -30.16913 40288 ft 510 kts 78°
2026-05-07 19:06 52.99719 -30.05179 40287 ft 511 kts 79°
2026-05-07 19:06 53.00598 -29.87526 40287 ft 513 kts 81°
2026-05-07 19:07 53.01035 -29.75777 40279 ft 512 kts 81°
2026-05-07 19:07 53.01473 -29.63982 40283 ft 511 kts 81°
2026-05-07 19:08 53.01917 -29.52227 40280 ft 510 kts 81°
2026-05-07 19:08 53.02359 -29.40466 40276 ft 510 kts 81°
2026-05-07 19:09 53.02790 -29.28720 40275 ft 510 kts 81°
2026-05-07 19:09 53.03208 -29.16974 40264 ft 510 kts 81°
2026-05-07 19:10 53.03615 -29.05213 40265 ft 509 kts 82°
2026-05-07 19:10 53.04008 -28.93476 40267 ft 509 kts 82°
2026-05-07 19:11 53.04390 -28.81736 40255 ft 509 kts 82°
2026-05-07 19:11 53.04761 -28.69978 40256 ft 509 kts 82°
2026-05-07 19:12 53.05121 -28.58222 40287 ft 509 kts 83°
2026-05-07 19:12 53.05469 -28.46460 40248 ft 510 kts 83°
2026-05-07 19:13 53.05806 -28.34673 40252 ft 510 kts 83°
2026-05-07 19:13 53.06131 -28.22885 40246 ft 510 kts 83°
2026-05-07 19:14 53.06392 -28.13101 40244 ft 510 kts 83°
2026-05-07 19:14 53.06696 -28.01301 40258 ft 511 kts 83°
2026-05-07 19:15 53.06989 -27.89505 40237 ft 511 kts 83°
2026-05-07 19:15 53.07315 -27.75763 40242 ft 511 kts 84°
2026-05-07 19:16 53.07540 -27.65855 40233 ft 511 kts 84°
2026-05-07 19:16 53.07797 -27.54034 40233 ft 511 kts 84°
2026-05-07 19:17 53.08042 -27.42292 40233 ft 512 kts 84°
2026-05-07 19:17 53.08277 -27.30460 40222 ft 513 kts 84°
2026-05-07 19:18 53.08500 -27.18584 40224 ft 513 kts 84°
2026-05-07 19:18 53.08711 -27.06726 40225 ft 513 kts 84°
2026-05-07 19:19 53.08911 -26.94854 40221 ft 513 kts 84°
2026-05-07 19:19 53.09099 -26.82983 40221 ft 513 kts 85°
2026-05-07 19:20 53.09275 -26.71131 40219 ft 513 kts 85°
2026-05-07 19:20 53.09439 -26.59260 40220 ft 513 kts 85°
2026-05-07 19:21 53.09592 -26.47385 40214 ft 513 kts 85°
2026-05-07 19:21 53.09732 -26.35597 40242 ft 513 kts 85°
2026-05-07 19:22 53.09861 -26.23717 40211 ft 514 kts 85°
2026-05-07 19:22 53.09979 -26.11816 40208 ft 514 kts 85°
2026-05-07 19:23 53.10084 -25.99905 40203 ft 514 kts 85°
2026-05-07 19:23 53.10178 -25.87994 40203 ft 514 kts 86°
2026-05-07 19:24 53.10260 -25.76076 40211 ft 515 kts 86°
2026-05-07 19:24 53.10330 -25.64169 40201 ft 515 kts 86°
2026-05-07 19:25 53.10388 -25.52236 40196 ft 516 kts 86°
2026-05-07 19:25 53.10434 -25.40301 40190 ft 516 kts 86°
2026-05-07 19:26 53.10468 -25.28370 40189 ft 516 kts 86°
2026-05-07 19:26 53.10491 -25.16440 40194 ft 516 kts 86°
2026-05-07 19:27 53.10502 -25.04489 40182 ft 517 kts 87°
2026-05-07 19:27 53.10500 -24.92538 40173 ft 517 kts 87°
2026-05-07 19:28 53.10486 -24.80566 40181 ft 517 kts 87°
2026-05-07 19:28 53.10461 -24.68616 40180 ft 517 kts 87°
2026-05-07 19:29 53.10424 -24.56724 40168 ft 517 kts 87°
2026-05-07 19:29 53.10374 -24.44753 40167 ft 517 kts 88°
2026-05-07 19:30 53.10313 -24.32764 40161 ft 518 kts 88°
2026-05-07 19:30 53.10239 -24.20788 40176 ft 518 kts 88°
2026-05-07 19:31 53.10153 -24.08799 40173 ft 518 kts 88°
2026-05-07 19:31 53.10056 -23.96818 40159 ft 518 kts 88°
2026-05-07 19:32 53.09946 -23.84848 40150 ft 518 kts 88°
2026-05-07 19:32 53.09825 -23.72841 40160 ft 518 kts 88°
2026-05-07 19:33 53.09692 -23.60940 40151 ft 518 kts 89°
2026-05-07 19:33 53.09546 -23.48961 40156 ft 518 kts 89°
2026-05-07 19:34 53.09388 -23.36971 40148 ft 518 kts 89°
2026-05-07 19:34 53.09218 -23.24973 40148 ft 519 kts 89°
2026-05-07 19:35 53.09036 -23.12981 40143 ft 519 kts 89°
2026-05-07 19:35 53.08842 -23.00979 40143 ft 519 kts 89°
2026-05-07 19:36 53.08636 -22.88994 40138 ft 519 kts 89°
2026-05-07 19:36 53.08417 -22.76983 40137 ft 519 kts 90°
2026-05-07 19:37 53.08186 -22.64967 40126 ft 519 kts 90°
2026-05-07 19:37 53.07944 -22.52973 40131 ft 519 kts 90°
2026-05-07 19:38 53.07689 -22.40952 40142 ft 520 kts 90°
2026-05-07 19:38 53.07422 -22.28959 40129 ft 519 kts 90°
2026-05-07 19:39 53.07143 -22.16946 40121 ft 519 kts 90°
2026-05-07 19:39 53.06853 -22.05018 40121 ft 519 kts 90°
2026-05-07 19:40 53.06550 -21.93021 40119 ft 519 kts 91°
2026-05-07 19:40 53.06236 -21.81021 40122 ft 520 kts 91°
2026-05-07 19:41 53.05908 -21.69010 40110 ft 520 kts 91°
2026-05-07 19:41 53.05568 -21.56998 40110 ft 520 kts 91°
2026-05-07 19:42 53.05217 -21.45015 40098 ft 520 kts 91°
2026-05-07 19:42 53.04853 -21.32999 40108 ft 520 kts 91°
2026-05-07 19:43 53.04477 -21.20994 40105 ft 521 kts 91°
2026-05-07 19:43 53.04088 -21.08981 40102 ft 521 kts 91°
2026-05-07 19:44 53.03688 -20.96974 40102 ft 521 kts 92°
2026-05-07 19:44 53.03275 -20.84960 40102 ft 521 kts 92°
2026-05-07 19:45 53.02851 -20.72954 40100 ft 520 kts 92°
2026-05-07 19:45 53.02413 -20.60937 40094 ft 521 kts 92°
2026-05-07 19:46 53.01965 -20.48953 40095 ft 521 kts 92°
2026-05-07 19:46 53.01506 -20.37019 40094 ft 521 kts 92°
2026-05-07 19:47 53.01030 -20.24943 40077 ft 521 kts 93°
2026-05-07 19:47 53.00546 -20.12963 40090 ft 520 kts 93°
2026-05-07 19:48 52.99922 -20.01069 40085 ft 521 kts 99°
2026-05-07 19:48 52.98184 -19.89395 40084 ft 521 kts 105°
2026-05-07 19:49 52.96161 -19.77849 40078 ft 521 kts 106°
2026-05-07 19:49 52.94083 -19.66324 40077 ft 521 kts 107°
2026-05-07 19:50 52.92008 -19.54809 40077 ft 521 kts 107°
2026-05-07 19:50 52.89935 -19.43298 40070 ft 521 kts 107°
2026-05-07 19:51 52.87859 -19.31812 40072 ft 520 kts 107°
2026-05-07 19:51 52.85772 -19.20347 40067 ft 520 kts 107°
2026-05-07 19:52 52.83674 -19.08893 40064 ft 520 kts 107°
2026-05-07 19:52 52.81565 -18.97453 40068 ft 520 kts 107°
2026-05-07 19:53 52.79445 -18.86018 40065 ft 520 kts 107°
2026-05-07 19:53 52.77316 -18.74609 40061 ft 520 kts 108°
2026-05-07 19:54 52.75173 -18.63197 40053 ft 520 kts 108°
2026-05-07 19:54 52.73033 -18.51869 40056 ft 520 kts 108°
2026-05-07 19:55 52.70870 -18.40488 40056 ft 520 kts 108°
2026-05-07 19:55 52.68694 -18.29107 40054 ft 520 kts 108°
2026-05-07 19:56 52.66510 -18.17752 40056 ft 520 kts 108°
2026-05-07 19:56 52.64317 -18.06417 40048 ft 520 kts 108°
2026-05-07 19:57 52.62110 -17.95076 40031 ft 520 kts 108°
2026-05-07 19:57 52.59907 -17.83825 40045 ft 519 kts 109°
2026-05-07 19:58 52.57682 -17.72524 40049 ft 520 kts 109°
2026-05-07 19:58 52.55443 -17.61223 40044 ft 520 kts 109°
2026-05-07 19:59 52.53194 -17.49933 40037 ft 520 kts 109°
2026-05-07 19:59 52.50935 -17.38661 40034 ft 520 kts 109°
2026-05-07 20:00 52.48663 -17.27388 40039 ft 520 kts 109°
2026-05-07 20:00 52.46384 -17.16145 40037 ft 520 kts 109°
2026-05-07 20:01 52.44095 -17.04913 40034 ft 519 kts 110°
2026-05-07 20:01 52.41797 -16.93706 40036 ft 518 kts 110°
2026-05-07 20:02 52.39878 -16.84394 40031 ft 518 kts 110°
2026-05-07 20:02 52.37563 -16.73223 40031 ft 518 kts 110°
2026-05-07 20:03 52.34857 -16.60236 40028 ft 518 kts 110°
2026-05-07 20:03 52.32900 -16.50896 40031 ft 519 kts 110°
2026-05-07 20:04 52.30549 -16.39736 40022 ft 519 kts 110°
2026-05-07 20:04 52.28189 -16.28594 40018 ft 519 kts 110°
2026-05-07 20:05 52.25834 -16.17538 40022 ft 519 kts 110°
2026-05-07 20:05 52.23456 -16.06430 40022 ft 519 kts 111°
2026-05-07 20:06 52.21066 -15.95332 40020 ft 519 kts 111°
2026-05-07 20:06 52.18667 -15.84245 40020 ft 519 kts 111°
2026-05-07 20:07 52.16253 -15.73157 40015 ft 519 kts 111°
2026-05-07 20:07 52.13827 -15.62071 40015 ft 519 kts 111°
2026-05-07 20:08 52.11394 -15.51011 40012 ft 519 kts 111°
2026-05-07 20:08 52.08949 -15.39955 40015 ft 519 kts 111°
2026-05-07 20:09 52.06494 -15.28915 40015 ft 519 kts 111°
2026-05-07 20:10 52.02792 -15.12372 39991 ft 519 kts 111°
2026-05-07 20:10 52.00581 -15.01224 40010 ft 521 kts 102°
2026-05-07 20:11 52.00000 -14.89495 40006 ft 522 kts 91°
2026-05-07 20:11 51.99997 -14.77698 40007 ft 523 kts 90°
2026-05-07 20:12 52.00071 -14.65981 40008 ft 523 kts 90°
2026-05-07 20:12 52.00111 -14.54196 40008 ft 523 kts 90°
2026-05-07 20:13 52.00116 -14.42406 40005 ft 523 kts 91°
2026-05-07 20:13 51.99985 -14.30616 39999 ft 522 kts 97°
2026-05-07 20:14 51.98636 -14.19096 39999 ft 519 kts 106°
2026-05-07 20:14 51.96644 -14.07857 39998 ft 518 kts 108°
2026-05-07 20:15 51.94550 -13.96674 40001 ft 518 kts 108°
2026-05-07 20:15 51.92505 -13.85476 39997 ft 518 kts 108°
2026-05-07 20:16 51.90487 -13.74267 39993 ft 518 kts 108°
2026-05-07 20:16 51.88472 -13.63084 39996 ft 517 kts 108°
2026-05-07 20:17 51.86444 -13.51910 39997 ft 517 kts 108°
2026-05-07 20:17 51.84405 -13.40755 39992 ft 517 kts 108°
2026-05-07 20:18 51.82355 -13.29611 39993 ft 517 kts 108°
2026-05-07 20:18 51.80293 -13.18475 39989 ft 517 kts 108°
2026-05-07 20:19 51.78225 -13.07367 39987 ft 516 kts 108°
2026-05-07 20:19 51.76150 -12.96288 39988 ft 515 kts 108°
2026-05-07 20:20 51.74070 -12.85247 39987 ft 514 kts 109°
2026-05-07 20:20 51.71978 -12.74215 39988 ft 514 kts 109°
2026-05-07 20:21 51.69874 -12.63177 39989 ft 514 kts 109°
2026-05-07 20:21 51.67764 -12.52171 39988 ft 513 kts 109°
2026-05-07 20:22 51.65649 -12.41206 39985 ft 513 kts 109°
2026-05-07 20:22 51.63537 -12.30318 39973 ft 513 kts 109°
2026-05-07 20:23 51.61391 -12.19304 39985 ft 512 kts 109°
2026-05-07 20:23 51.59262 -12.08455 39983 ft 512 kts 109°
2026-05-07 20:24 51.57108 -11.97547 39983 ft 511 kts 109°
2026-05-07 20:24 51.54948 -11.86667 39985 ft 511 kts 109°
2026-05-07 20:25 51.52775 -11.75778 39986 ft 511 kts 109°
2026-05-07 20:25 51.50594 -11.64910 39985 ft 511 kts 109°
2026-05-07 20:26 51.48405 -11.54061 39988 ft 511 kts 109°
2026-05-07 20:26 51.46206 -11.43222 39987 ft 511 kts 109°
2026-05-07 20:27 51.43999 -11.32407 39984 ft 510 kts 109°
2026-05-07 20:27 51.41780 -11.21590 39985 ft 510 kts 110°
2026-05-07 20:28 51.39555 -11.10801 39986 ft 510 kts 110°
2026-05-07 20:28 51.37333 -11.00083 39990 ft 510 kts 110°
2026-05-07 20:29 51.35090 -10.89327 39983 ft 509 kts 110°
2026-05-07 20:29 51.32824 -10.78514 39985 ft 509 kts 110°
2026-05-07 20:30 51.30576 -10.67848 39993 ft 510 kts 110°
2026-05-07 20:30 51.28307 -10.57112 39993 ft 510 kts 110°
2026-05-07 20:31 51.26023 -10.46399 39992 ft 509 kts 110°
2026-05-07 20:31 51.23736 -10.35726 39992 ft 508 kts 110°
2026-05-07 20:32 51.21438 -10.25051 39993 ft 508 kts 110°
2026-05-07 20:32 51.19131 -10.14390 39994 ft 508 kts 110°
2026-05-07 20:33 51.16815 -10.03739 39995 ft 508 kts 110°
2026-05-07 20:33 51.14490 -9.93101 39988 ft 508 kts 110°
2026-05-07 20:34 51.12155 -9.82475 39996 ft 508 kts 110°
2026-05-07 20:34 51.09813 -9.71871 39999 ft 508 kts 110°
2026-05-07 20:35 51.07459 -9.61267 39999 ft 508 kts 111°
2026-05-07 20:35 51.05097 -9.50680 40000 ft 508 kts 111°
2026-05-07 20:36 51.02728 -9.40116 40001 ft 507 kts 111°
2026-05-07 20:36 51.00350 -9.29565 40001 ft 507 kts 111°
2026-05-07 20:37 50.97965 -9.19033 40000 ft 507 kts 111°
2026-05-07 20:37 50.95572 -9.08524 39998 ft 507 kts 111°
2026-05-07 20:38 50.93183 -8.98078 40008 ft 507 kts 111°
2026-05-07 20:38 50.90772 -8.87591 40007 ft 506 kts 111°
2026-05-07 20:39 50.88355 -8.77130 40007 ft 505 kts 111°
2026-05-07 20:39 50.85929 -8.66683 40006 ft 505 kts 111°
2026-05-07 20:40 50.83496 -8.56250 40004 ft 505 kts 111°
2026-05-07 20:40 50.81052 -8.45827 40004 ft 505 kts 111°
2026-05-07 20:41 50.78604 -8.35435 40013 ft 505 kts 111°
2026-05-07 20:41 50.76143 -8.25039 40309 ft 505 kts 111°
2026-05-07 20:41 50.74906 -8.19829 40487 ft 504 kts 112°
2026-05-07 20:42 50.73673 -8.14653 40653 ft 504 kts 112°
2026-05-07 20:42 50.72437 -8.09474 40801 ft 504 kts 112°
2026-05-07 20:42 50.71197 -8.04293 40946 ft 505 kts 112°
2026-05-07 20:43 50.68711 -7.93926 41014 ft 505 kts 112°
2026-05-07 20:43 50.66216 -7.83576 41016 ft 505 kts 112°
2026-05-07 20:44 50.63706 -7.73238 41016 ft 505 kts 112°
2026-05-07 20:44 50.61192 -7.62922 41008 ft 505 kts 112°
2026-05-07 20:45 50.58669 -7.52611 41008 ft 505 kts 112°
2026-05-07 20:45 50.56134 -7.42301 41020 ft 505 kts 112°
2026-05-07 20:46 50.53609 -7.32074 41026 ft 505 kts 112°
2026-05-07 20:46 50.51059 -7.21799 41019 ft 505 kts 112°
2026-05-07 20:47 50.48500 -7.11533 41023 ft 505 kts 113°
2026-05-07 20:47 50.45934 -7.01285 41006 ft 505 kts 113°
2026-05-07 20:48 50.43358 -6.91046 41010 ft 504 kts 113°
2026-05-07 20:48 50.40773 -6.80820 41019 ft 504 kts 113°
2026-05-07 20:49 50.38619 -6.72331 41017 ft 504 kts 113°
2026-05-07 20:49 50.36016 -6.62117 41016 ft 504 kts 113°
2026-05-07 20:50 50.33410 -6.51938 41018 ft 504 kts 113°
2026-05-07 20:50 50.30789 -6.41747 41017 ft 504 kts 113°
2026-05-07 20:51 50.28162 -6.31576 41011 ft 504 kts 114°
2026-05-07 20:51 50.25546 -6.21493 41019 ft 504 kts 114°
2026-05-07 20:52 50.22903 -6.11353 41016 ft 504 kts 114°
2026-05-07 20:52 50.20250 -6.01216 41016 ft 504 kts 114°
2026-05-07 20:53 50.17568 -5.91020 41013 ft 504 kts 114°
2026-05-07 20:53 50.14919 -5.80987 41010 ft 504 kts 114°
2026-05-07 20:54 50.12240 -5.70890 41012 ft 504 kts 114°
2026-05-07 20:54 50.09554 -5.60809 40998 ft 504 kts 114°
2026-05-07 20:55 50.06858 -5.50734 40995 ft 504 kts 114°
2026-05-07 20:55 50.04151 -5.40661 40994 ft 504 kts 114°
2026-05-07 20:56 50.01439 -5.30614 40995 ft 504 kts 114°
2026-05-07 20:56 49.98715 -5.20566 40990 ft 504 kts 114°
2026-05-07 20:57 49.95982 -5.10527 40995 ft 504 kts 114°
2026-05-07 20:57 49.93242 -5.00506 41000 ft 504 kts 115°
2026-05-07 20:58 49.90493 -4.90498 41007 ft 504 kts 115°
2026-05-07 20:58 49.87737 -4.80506 41005 ft 504 kts 115°
2026-05-07 20:59 49.84969 -4.70512 41005 ft 504 kts 115°
2026-05-07 20:59 49.82209 -4.60589 41006 ft 504 kts 115°
2026-05-07 21:00 49.79422 -4.50608 41001 ft 504 kts 115°
2026-05-07 21:00 49.76628 -4.40649 41012 ft 505 kts 115°
2026-05-07 21:01 49.73827 -4.30704 41008 ft 505 kts 115°
2026-05-07 21:01 49.71012 -4.20752 41002 ft 505 kts 115°
2026-05-07 21:02 49.68196 -4.10838 41002 ft 505 kts 115°
2026-05-07 21:02 49.65613 -4.00755 41009 ft 507 kts 106°
2026-05-07 21:03 49.64482 -3.90028 41002 ft 508 kts 97°
2026-05-07 21:03 49.63800 -3.79161 41003 ft 509 kts 96°
2026-05-07 21:04 49.63169 -3.68280 41011 ft 509 kts 96°
2026-05-07 21:04 49.62507 -3.57429 41015 ft 509 kts 96°
2026-05-07 21:05 49.61814 -3.46562 41003 ft 508 kts 96°
2026-05-07 21:05 49.61108 -3.35737 40999 ft 508 kts 97°
2026-05-07 21:06 49.60389 -3.24888 41017 ft 508 kts 97°
2026-05-07 21:06 49.59664 -3.14064 41004 ft 508 kts 97°
2026-05-07 21:07 49.58928 -3.03234 41008 ft 508 kts 97°
2026-05-07 21:07 49.58181 -2.92404 41020 ft 508 kts 97°
2026-05-07 21:08 49.57425 -2.81577 41024 ft 508 kts 97°
2026-05-07 21:08 49.56664 -2.70839 41027 ft 508 kts 97°
2026-05-07 21:09 49.55888 -2.60022 41021 ft 508 kts 97°
2026-05-07 21:09 49.55101 -2.49212 41022 ft 508 kts 97°
2026-05-07 21:10 49.54306 -2.38414 41020 ft 508 kts 97°
2026-05-07 21:10 49.53498 -2.27602 41025 ft 508 kts 97°
2026-05-07 21:11 49.52683 -2.16812 41025 ft 508 kts 98°
2026-05-07 21:11 49.51439 -2.00618 41029 ft 508 kts 98°
2026-05-07 21:12 49.50597 -1.89820 41024 ft 508 kts 98°
2026-05-07 21:12 49.49745 -1.79032 41036 ft 508 kts 98°
2026-05-07 21:13 49.48882 -1.68233 41043 ft 509 kts 98°
2026-05-07 21:13 49.48015 -1.57444 41043 ft 509 kts 98°
2026-05-07 21:14 49.47129 -1.46650 41043 ft 509 kts 98°
2026-05-07 21:14 49.46233 -1.35867 41042 ft 509 kts 98°
2026-05-07 21:15 49.45329 -1.25084 41040 ft 509 kts 98°
2026-05-07 21:15 49.44416 -1.14304 41037 ft 509 kts 98°
2026-05-07 21:16 49.43492 -1.03525 40993 ft 509 kts 98°
2026-05-07 21:16 49.43027 -0.98137 40715 ft 508 kts 99°
2026-05-07 21:16 49.42560 -0.92757 40041 ft 508 kts 99°
2026-05-07 21:17 49.42088 -0.87362 39264 ft 511 kts 98°
2026-05-07 21:17 49.41613 -0.81964 38576 ft 511 kts 98°
2026-05-07 21:17 49.41135 -0.76547 37711 ft 512 kts 99°
2026-05-07 21:17 49.40656 -0.71141 36851 ft 511 kts 99°
2026-05-07 21:18 49.40172 -0.65720 36060 ft 510 kts 99°
2026-05-07 21:18 49.39691 -0.60354 35329 ft 508 kts 100°
2026-05-07 21:18 49.39207 -0.54980 34566 ft 506 kts 100°
2026-05-07 21:18 49.38721 -0.49621 33695 ft 506 kts 100°
2026-05-07 21:19 49.38234 -0.44293 32778 ft 505 kts 100°
2026-05-07 21:19 49.37749 -0.39023 31926 ft 504 kts 100°
2026-05-07 21:19 49.37253 -0.33643 31022 ft 503 kts 100°
2026-05-07 21:19 49.36767 -0.28408 30403 ft 498 kts 100°
2026-05-07 21:20 49.36285 -0.23176 29793 ft 492 kts 99°
2026-05-07 21:20 49.35931 -0.17980 29185 ft 486 kts 97°
2026-05-07 21:20 49.35637 -0.12848 28600 ft 480 kts 97°
2026-05-07 21:20 49.35340 -0.07780 28007 ft 474 kts 97°
2026-05-07 21:21 49.35036 -0.02784 27442 ft 468 kts 97°
2026-05-07 21:21 49.34727 0.02160 26875 ft 463 kts 97°
2026-05-07 21:21 49.34417 0.07040 26319 ft 458 kts 97°
2026-05-07 21:21 49.34111 0.11791 25772 ft 454 kts 97°
2026-05-07 21:22 49.33800 0.16575 25207 ft 449 kts 97°
2026-05-07 21:22 49.33488 0.21329 24648 ft 446 kts 97°
2026-05-07 21:22 49.33176 0.26043 24218 ft 445 kts 97°
2026-05-07 21:22 49.32865 0.30723 24033 ft 435 kts 97°
2026-05-07 21:23 49.32562 0.35272 23797 ft 423 kts 98°
2026-05-07 21:23 49.32264 0.39706 23568 ft 412 kts 98°
2026-05-07 21:23 49.31972 0.44024 23189 ft 405 kts 98°
2026-05-07 21:23 49.31689 0.48251 22618 ft 401 kts 97°
2026-05-07 21:24 49.31553 0.52363 22172 ft 397 kts 93°
2026-05-07 21:24 49.31508 0.56070 21785 ft 393 kts 92°
2026-05-07 21:24 49.31493 0.57517 21626 ft 392 kts 92°
2026-05-07 21:24 49.31457 0.61171 21218 ft 389 kts 92°
2026-05-07 21:25 49.31413 0.65292 20759 ft 385 kts 93°
2026-05-07 21:25 49.31367 0.69381 20302 ft 382 kts 93°
2026-05-07 21:25 49.31320 0.73443 19845 ft 380 kts 93°
2026-05-07 21:25 49.31270 0.77477 19390 ft 377 kts 93°
2026-05-07 21:26 49.31220 0.81470 18943 ft 375 kts 93°
2026-05-07 21:26 49.31168 0.85460 18486 ft 373 kts 93°
2026-05-07 21:26 49.31115 0.89422 17994 ft 371 kts 93°
2026-05-07 21:26 49.31061 0.93358 17541 ft 368 kts 93°
2026-05-07 21:27 49.31006 0.97259 17114 ft 365 kts 93°
2026-05-07 21:27 49.30950 1.01135 16684 ft 362 kts 93°
2026-05-07 21:27 49.30893 1.04983 16233 ft 360 kts 93°
2026-05-07 21:27 49.30836 1.08799 15797 ft 357 kts 93°
2026-05-07 21:28 49.30778 1.12540 15369 ft 355 kts 93°
2026-05-07 21:28 49.30719 1.16304 14945 ft 353 kts 93°
2026-05-07 21:28 49.30659 1.20056 14501 ft 351 kts 93°
2026-05-07 21:28 49.30598 1.23751 14076 ft 349 kts 93°
2026-05-07 21:29 49.30535 1.27459 13613 ft 346 kts 93°
2026-05-07 21:29 49.30472 1.31124 13175 ft 343 kts 92°
2026-05-07 21:29 49.30409 1.34753 12749 ft 339 kts 92°
2026-05-07 21:29 49.30346 1.38353 12349 ft 335 kts 92°
2026-05-07 21:30 49.30284 1.41849 12183 ft 322 kts 92°
2026-05-07 21:30 49.30223 1.45208 12047 ft 309 kts 92°
2026-05-07 21:30 49.30164 1.48426 11875 ft 299 kts 92°
2026-05-07 21:30 49.30104 1.51596 11562 ft 296 kts 92°
2026-05-07 21:31 49.30044 1.54734 11249 ft 294 kts 92°
2026-05-07 21:31 49.29983 1.57852 10954 ft 291 kts 92°
2026-05-07 21:31 49.29873 1.60955 10776 ft 297 kts 94°
2026-05-07 21:31 49.29718 1.64136 10539 ft 298 kts 94°
2026-05-07 21:32 49.29566 1.67297 10337 ft 297 kts 94°
2026-05-07 21:32 49.29416 1.70461 10112 ft 296 kts 94°
2026-05-07 21:32 49.29032 1.73539 10060 ft 296 kts 111°
2026-05-07 21:32 49.27925 1.76147 9959 ft 293 kts 138°
2026-05-07 21:33 49.26222 1.77814 9827 ft 290 kts 157°
2026-05-07 21:33 49.24377 1.79052 9657 ft 289 kts 159°
2026-05-07 21:33 49.22529 1.80262 9444 ft 289 kts 158°
2026-05-07 21:33 49.20692 1.81478 9244 ft 288 kts 158°
2026-05-07 21:34 49.18860 1.82700 9013 ft 287 kts 158°
2026-05-07 21:34 49.17030 1.83925 8816 ft 286 kts 158°
2026-05-07 21:34 49.15215 1.85148 8603 ft 285 kts 158°
2026-05-07 21:34 49.13394 1.86349 8394 ft 285 kts 158°
2026-05-07 21:35 49.12190 1.87141 8253 ft 284 kts 158°
2026-05-07 21:35 49.10375 1.88336 8105 ft 283 kts 158°
2026-05-07 21:35 49.08567 1.89529 7977 ft 283 kts 157°
2026-05-07 21:35 49.06767 1.90717 7847 ft 282 kts 157°
2026-05-07 21:36 49.04963 1.91909 7717 ft 282 kts 158°
2026-05-07 21:36 49.03171 1.93091 7595 ft 281 kts 158°
2026-05-07 21:36 49.01377 1.94274 7464 ft 281 kts 158°
2026-05-07 21:36 48.99583 1.95455 7324 ft 281 kts 157°
2026-05-07 21:37 48.97844 1.96774 7128 ft 280 kts 148°
2026-05-07 21:37 48.96555 1.98877 6915 ft 269 kts 115°
2026-05-07 21:37 48.96213 2.01578 6724 ft 258 kts 88°
2026-05-07 21:37 48.96374 2.04250 6519 ft 249 kts 81°
2026-05-07 21:38 48.96592 2.06819 6307 ft 242 kts 82°
2026-05-07 21:38 48.96761 2.09330 6092 ft 235 kts 84°
2026-05-07 21:38 48.96897 2.11786 5871 ft 229 kts 84°
2026-05-07 21:38 48.97023 2.14144 5668 ft 223 kts 85°
2026-05-07 21:39 48.97145 2.16461 5487 ft 215 kts 85°
2026-05-07 21:39 48.97262 2.18671 5308 ft 205 kts 84°
2026-05-07 21:39 48.97375 2.20791 5062 ft 198 kts 84°
2026-05-07 21:39 48.97486 2.22844 4793 ft 194 kts 85°
2026-05-07 21:40 48.97595 2.24877 4515 ft 191 kts 85°
2026-05-07 21:40 48.97702 2.26880 4244 ft 190 kts 85°
2026-05-07 21:40 48.97808 2.28868 3982 ft 189 kts 85°
2026-05-07 21:40 48.97914 2.30851 3723 ft 187 kts 85°
2026-05-07 21:41 48.98018 2.32796 3479 ft 186 kts 86°
2026-05-07 21:41 48.98123 2.34763 3225 ft 185 kts 85°
2026-05-07 21:41 48.98228 2.36715 2973 ft 184 kts 86°
2026-05-07 21:41 48.98330 2.38628 2733 ft 183 kts 86°
2026-05-07 21:42 48.98432 2.40528 2478 ft 182 kts 85°
2026-05-07 21:42 48.98535 2.42441 2221 ft 181 kts 86°
2026-05-07 21:42 48.98634 2.44290 1988 ft 174 kts 86°
2026-05-07 21:42 48.98728 2.46057 1767 ft 161 kts 86°
2026-05-07 21:43 48.98817 2.47710 1544 ft 152 kts 86°
2026-05-07 21:43 48.98900 2.49258 1346 ft 140 kts 90°
2026-05-07 21:43 48.98975 2.50662 1139 ft 130 kts 86°
2026-05-07 21:43 48.99041 2.52022 958 ft 130 kts 86°
2026-05-07 21:44 48.99099 2.53383 781 ft 129 kts 84°
2026-05-07 21:44 48.99184 2.54748 604 ft 130 kts 82°
2026-05-07 21:44 48.99263 2.56094 428 ft 128 kts 85°
2026-05-07 21:44 48.99339 2.57420 366 ft 121 kts 85°
2026-05-07 21:45 48.99390 2.58416 359 ft 68 kts 85°
2026-05-07 21:45 48.99414 2.58856 365 ft 16 kts 85°
2026-05-07 21:45 48.99422 2.59015 360 ft 17 kts 84°
2026-05-07 21:45 48.99450 2.59194 358 ft 18 kts 70°
2026-05-07 21:46 48.99502 2.59365 364 ft 17 kts 64°
2026-05-07 21:46 48.99548 2.59523 366 ft 16 kts 65°
2026-05-07 21:46 48.99592 2.59654 369 ft 13 kts 51°
2026-05-07 21:46 48.99670 2.59688 362 ft 12 kts 360°
2026-05-07 21:47 48.99755 2.59679 366 ft 15 kts 356°
2026-05-07 21:47 48.99865 2.59667 359 ft 16 kts 355°
2026-05-07 21:47 48.99977 2.59653 362 ft 16 kts 355°
2026-05-07 21:47 49.00066 2.59604 368 ft 13 kts 301°
2026-05-07 21:48 49.00072 2.59455 362 ft 16 kts 266°
2026-05-07 21:48 49.00063 2.59282 366 ft 16 kts 265°
2026-05-07 21:48 49.00054 2.59098 362 ft 19 kts 265°
2026-05-07 21:48 49.00043 2.58914 364 ft 18 kts 265°
2026-05-07 21:49 49.00032 2.58708 360 ft 21 kts 266°
2026-05-07 21:49 49.00020 2.58472 363 ft 24 kts 265°
2026-05-07 21:49 49.00006 2.58207 362 ft 26 kts 265°
2026-05-07 21:49 48.99991 2.57925 366 ft 25 kts 265°
2026-05-07 21:50 48.99982 2.57730 365 ft 17 kts 265°
2026-05-07 21:50 48.99971 2.57534 364 ft 20 kts 264°
2026-05-07 21:50 48.99961 2.57330 366 ft 5 kts 271°
2026-05-07 21:50 48.99967 2.57311 365 ft 7 kts 302°
2026-05-07 21:51 49.00020 2.57309 366 ft 6 kts 40°
2026-05-07 21:51 49.00039 2.57376 363 ft 8 kts 82°
2026-05-07 21:51 49.00047 2.57476 367 ft 11 kts 83°
2026-05-07 21:51 49.00076 2.57523 363 ft 5 kts
2026-05-07 21:52 49.00116 2.57526 367 ft 5 kts
2026-05-07 21:52 49.00118 2.57526 367 ft 0 kts
2026-05-07 21:53 49.00122 2.57526 368 ft 0 kts